ELECTRON KICK STAGE R/B, 62086

Orbit data source: Space-Track

ELECTRON KICK STAGE R/B, 62086 is space debris in SSO originally from a launch on Mon, 25 Nov 2024 UTC launched from the Rocket Lab Launch Complex (RLLC). Debris objects in space refer to the collection of defunct objects orbiting the Earth. Examples of debris include non-operational satellites, rocket bodies, and fragments generated from explosions, collisions, or faulty payload assembly.

Loading next visibility...
Identifier
62086, 2024-219F
Orbit
SSO
Country
Flag of USUS
Related business
Manufacturer
Rocket Lab
Mission
Spacecraft
Bus & Motor
KICK STAGE, CURIE
Mass
~50 kg wet, ~50 kg dry
Launch date (UTC)
2024-11-25 (1 year ago)
Launch vehicle
Unknown
Launch site
Rocket Lab Launch Complex (RLLC)
Object type
Payload
Rocket body
Debris
Shape & HBR
Trunc Cone, 0.7 m
Radar Cross Section
0.760 m², Medium (>0.1 m² and < 1m²)

Expand to show TLE details & history
Last TLE update: 19 hours ago

TLE from 19 hours ago
0 ELECTRON KICK STAGE R/B
1 62086U 24219F   25340.90912725  .00008274  00000-0  74102-3 0  9997
2 62086  97.9709 149.9685 0052224 231.2692 128.3854 14.95032433 56193
Epoch: 2025-12-06T21:49Z
TLE epoch observation values (Epoch: 2025-12-06T21:49:08.594Z)
Latitude
0.00001°
Longitude
106.75258°
Altitude
608.004 km
Speed
7.543 km/s
True Right ascension
09h 59m 52s
True Declination
0° 00' 00"
Sunlit
Object was in daylight at epoch
Visualization orbit readout
Latitude
Unknown
Longitude
Unknown
Altitude
Unknown
Speed
Unknown
Apparent Right ascension
Unknown
Apparent Declination
Unknown
Sunlit
N/A
Visualization observer readout
Local Sidereal Time
14:44:42
Azimuth
Unknown
Elevation
Unknown
Doppler factor
Unknown
Orbital elements
Apogee altitude
615.63 km
Perigee altitude
542.961 km
Semi-major axis
6,957.433 km
Eccentricity
0.00522
Inclination
97.9709°
RAAN
149.9685°
Arg. of periapsis
231.2692°
True anomaly
128.85259°
Mean anomaly
128.3854°
Eccentric anomaly
128.61919°
Mean motion
3.73998 °/min
Orbital period
96.26 mins
BSTAR
0.00074102
Loading maneuver chart data...
Computing Atmospheric mass density...
Loading historical data...
Loading historical data...
Loading historical data...
Loading historical data...
Loading historical data...
Loading historical data...
Loading historical data...

Documentation

Showing up to 5 results
|